sat.trackr.live / text

‹ back to catalog

STARLINK-5765

NORAD 57147 · 2023-090AY

PAYLOAD ACTIVE UNKNOWN

§ Identity

Operator
Country
US
Launch date
2023-06-23
Launch site
AFETR
Launch vehicle
Mass (kg)
RCS (m²)

Purposes: comms

External: N2YO · Heavens-Above · Gunter

§ Orbital elements

Epoch: 2026-09-20T15:06:43.059456Z

Period
94.27 min
Inclination
43.0005°
Eccentricity
0.0001176
Mean motion
15.27576999 rev/d
Perigee alt
482.3 km
Apogee alt
483.9 km
Semi-major
6,861.2 km
B*
1.0737e-5
RAAN
242.6957°
Arg perigee
271.2361°
Mean anomaly
88.8356°
Rev number
18,035

§ Raw data

STARLINK-57651 57147U 23090AY  26263.62966504  .00000033  00000+0  10737-4 0  99922 57147  43.0005 242.6957 0001176 271.2361  88.8356 15.27576999180355

JSON: /api/v1/satellites/57147 · /tle

For live sub-satellite position, see the globe view (requires WebGL).

§ Visibility from observer

Set your observer location to see the next 7 days of passes ≥ 10°. The values pass through the URL so the page stays shareable.

No JS? Fill the form by hand. The geolocation button needs JavaScript.